Temperature
19 18 19 19 19 19 19 19 19 19 19 19 19 19 19 19 18 18 18 18 18 18 18 18 18 18 18 18 18 18 18 18 18 17 17 17 17 17 17 17 17 16 17
19 19 19 19 19 19 19 19 19 19 19 19 19 19 19 18 18 18 18 18 18 18 18 18 18 18 18 18 18 18 18 17 17 17 17 17 17 17 17 17 16 16 17
19 19 19 19 19 19 19 19 19 19 19 19 19 19 19 18 18 18 18 18 18 18 18 18 18 18 18 18 18 18 17 17 17 17 17 16 17 17 17 17 17 17 17
19 19 19 19 19 19 19 19 19 19 19 19 19 19 18 18 18 18 18 18 18 18 18 18 18 18 18 18 18 17 17 17 17 17 17 16 16 17 17 17 17 17 17
19 19 19 19 19 19 19 19 19 19 19 19 19 18 18 18 18 18 18 18 18 18 18 18 18 18 18 18 18 17 17 17 17 17 17 16 16 17 17 17 17 17 17
19 19 19 19 19 19 19 19 19 19 19 19 18 18 18 18 18 18 18 18 18 18 18 18 18 18 18 18 18 17 17 17 17 17 17 16 16 17 17 17 17 17 16
20 19 19 19 19 19 19 19 19 19 19 18 18 18 18 18 18 18 18 18 18 18 18 18 18 17 17 17 17 17 17 17 17 17 16 16 17 17 17 17 17 17 16
20 19 19 19 19 19 19 19 19 19 19 18 18 18 18 18 18 18 18 18 18 18 18 18 18 17 17 17 17 17 17 17 17 17 16 16 17 17 17 17 17 17 17
20 19 19 18 19 19 19 19 19 19 18 18 18 18 18 18 18 18 18 18 18 18 18 18 17 18 18 17 17 17 17 17 17 17 16 16 17 17 17 17 17 17 16
19 19 19 19 18 18 18 19 19 19 18 18 18 18 18 18 18 18 18 18 18 18 17 17 17 17 17 17 17 17 17 17 17 17 17 16 17 17 17 17 17 16 16
19 19 19 19 18 18 18 18 18 18 18 18 18 18 18 17 17 17 17 18 18 18 18 17 17 17 17 17 17 17 17 17 17 17 16 17 17 17 17 17 17 16 16
18 18 18 18 18 18 18 18 18 17 18 17 17 17 17 17 17 17 18 17 17 18 18 17 17 17 17 17 17 17 17 17 17 17 16 17 17 17 17 17 17 16 16
19 18 18 18 18 18 18 18 18 17 17 17 17 17 17 17 17 17 17 17 17 17 17 17 17 17 17 17 17 17 17 17 17 17 17 17 17 17 16 16 16 16 16
19 18 18 18 18 18 18 18 18 17 17 17 18 17 17 17 17 17 17 17 17 17 17 17 17 17 17 17 17 17 17 17 17 17 17 17 17 17 16 16 16 16 16
19 19 18 19 19 18 18 18 18 17 17 17 18 17 17 17 17 17 17 17 17 17 17 17 17 17 17 17 17 17 17 17 17 17 17 17 17 17 16 16 16 16 16
19 19 19 19 19 19 18 18 18 17 18 17 17 17 17 17 17 17 17 17 17 17 17 17 17 17 17 17 17 17 17 17 16 17 16 17 17 17 16 16 16 16 16
20 19 19 19 19 19 18 18 18 17 17 17 17 17 17 17 17 17 17 17 17 17 17 17 17 17 17 17 17 17 17 17 17 16 16 16 16 17 17 17 16 16 16
20 20 20 19 19 19 19 18 18 18 17 17 17 17 17 17 17 17 17 17 17 17 17 17 17 17 17 17 17 17 17 17 17 16 17 16 16 16 16 17 16 16 16
20 20 20 19 19 19 19 18 18 18 18 17 17 18 18 17 17 17 17 17 17 17 17 17 17 17 17 17 17 17 17 17 17 17 17 16 16 16 16 17 17 17 16
20 20 20 19 19 19 18 18 18 18 18 18 18 18 18 17 17 17 17 17 17 17 17 17 17 17 17 17 18 17 17 17 17 17 17 17 16 16 16 16 16 16 17
20 20 20 19 19 19 18 18 18 18 18 18 18 18 18 17 17 18 17 17 17 17 17 17 17 17 17 17 17 17 17 17 17 17 17 17 17 17 16 16 16 16 16
20 20 20 19 19 19 18 18 18 18 18 18 18 18 18 18 17 17 17 17 17 17 17 17 17 17 17 17 17 17 18 18 17 18 17 17 17 17 17 16 16 16 16
20 20 19 19 19 19 18 18 18 18 18 18 18 18 18 18 17 17 17 17 17 17 17 17 17 17 17 17 17 18 18 19 18 18 17 17 17 17 17 17 16 16 16
20 20 20 19 19 19 18 18 18 18 18 18 18 18 18 18 17 17 17 17 17 17 17 17 17 17 17 17 17 17 17 18 18 18 17 17 17 17 17 17 17 16 16
20 20 19 19 19 19 18 18 18 17 17 17 17 17 18 17 17 17 17 17 17 17 17 17 17 17 17 17 17 17 17 17 18 18 18 17 17 17 17 17 17 16 16
20 20 19 19 19 19 18 18 18 18 17 17 17 17 17 17 17 17 17 17 17 17 17 17 17 17 17 17 17 18 18 18 18 18 18 17 17 17 17 17 17 16 16
Wind_Speed
12 15 16 14 14 15 16 16 17 17 16 16 16 15 15 14 13 12 12 12 12 13 13 12 12 12 12 12 13 14 14 15 16 16 16 17 17 17 16 16 15 17 17
16 17 16 15 15 15 16 16 17 17 16 16 15 15 14 13 13 12 12 12 12 12 12 12 12 12 13 13 13 14 14 15 15 16 16 16 16 15 14 12 13 16 17
18 18 17 16 16 15 16 16 16 16 16 15 14 14 13 13 12 12 11 11 11 12 12 12 12 13 13 13 14 14 14 14 14 15 14 14 15 14 14 15 17 17 16
18 19 18 17 16 16 16 16 16 15 15 14 14 13 13 12 12 11 11 11 12 12 12 12 12 13 13 13 13 14 14 14 12 12 11 13 14 15 14 15 16 16 16
17 17 19 18 16 16 16 15 15 14 14 14 13 13 12 12 12 11 11 11 12 12 12 12 12 12 13 13 13 13 13 12 9 8 11 12 13 14 14 15 15 16 15
16 17 19 17 16 16 15 15 14 14 14 13 12 12 12 11 11 11 11 11 12 12 12 12 12 12 13 13 12 13 13 10 9 10 11 11 13 14 14 14 15 15 14
16 17 19 17 16 15 15 15 14 14 13 12 12 11 11 11 11 11 11 11 12 12 12 12 12 12 12 12 12 12 10 6 7 10 10 11 13 13 13 13 14 14 14
15 16 19 17 15 15 14 14 14 13 12 12 11 11 11 11 11 11 11 11 11 11 12 12 12 12 12 12 12 11 9 5 9 9 10 12 13 13 13 13 13 13 13
14 15 17 17 15 14 13 13 13 12 12 11 11 11 11 11 11 11 11 11 11 11 11 12 11 11 11 12 11 10 7 1 7 8 9 11 13 12 12 12 12 12 12
12 13 14 15 15 15 14 13 12 12 11 11 11 11 11 11 11 10 11 11 11 11 11 11 11 11 11 10 10 9 7 5 7 8 8 12 12 11 11 11 11 12 11
12 11 12 13 13 12 13 14 12 12 10 10 10 10 9 9 10 10 11 10 10 10 10 10 10 10 10 10 10 9 7 4 6 6 8 14 11 10 10 10 10 11 11
15 13 11 11 12 11 10 12 10 10 10 8 8 9 7 7 7 9 11 9 10 10 10 9 9 10 8 9 10 9 5 5 5 6 10 12 10 10 10 9 9 10 10
15 13 12 11 11 10 9 9 8 7 8 7 7 7 6 7 7 8 9 9 9 9 9 10 9 7 6 6 5 5 5 5 4 6 10 11 10 9 9 9 9 9 9
14 14 12 11 10 9 9 8 7 7 7 6 7 7 7 5 5 6 5 7 7 6 5 6 5 5 5 5 4 5 4 3 4 5 9 10 9 9 9 9 8 8 9
14 14 13 12 10 9 8 7 7 6 7 7 6 6 5 5 5 5 5 4 5 5 6 5 5 6 5 5 5 5 4 3 4 5 8 10 9 9 9 9 8 8 8
14 14 13 13 12 10 8 6 6 7 6 6 7 7 6 5 5 5 5 4 4 5 4 4 5 5 4 4 4 4 4 5 4 4 7 10 10 9 9 9 9 9 8
13 13 13 13 12 11 10 9 7 7 7 7 6 7 7 6 6 5 4 5 5 5 5 4 5 4 4 4 4 4 4 4 5 4 5 6 9 11 10 10 10 9 9
13 13 13 12 12 11 9 8 7 7 7 7 7 7 8 7 6 6 5 5 5 6 6 4 4 4 3 3 4 3 4 4 4 5 5 6 6 8 11 11 10 10 10
13 13 13 12 12 11 9 8 7 6 6 6 7 7 7 8 8 7 5 4 6 5 5 5 5 4 4 3 4 4 3 3 4 5 5 6 6 6 7 12 11 10 10
13 13 13 13 11 10 9 7 6 6 6 7 7 7 8 8 8 8 7 7 7 5 5 4 3 3 3 4 4 3 3 3 4 4 5 6 6 7 7 7 9 11 12
12 13 13 13 13 11 8 8 8 7 7 7 7 8 9 9 8 8 7 7 7 6 6 6 5 6 5 4 3 3 3 4 4 4 5 4 6 6 6 7 7 6 9
13 13 14 14 14 13 10 8 6 6 6 7 6 7 9 9 9 9 8 7 7 6 7 6 6 5 4 5 4 3 3 4 4 4 4 5 4 5 6 7 6 6 6
13 13 12 14 14 13 11 8 6 5 5 6 7 7 8 9 10 10 9 8 6 7 7 7 7 7 5 5 5 4 3 3 3 4 4 4 4 4 4 5 7 7 7
12 12 12 12 13 12 11 10 11 9 9 9 7 7 8 9 10 10 10 9 7 7 7 8 8 6 6 6 5 5 5 3 3 3 4 4 4 4 3 4 5 6 6
11 11 11 11 11 11 12 12 11 10 8 7 7 8 8 8 10 10 10 9 8 8 8 8 6 8 7 7 5 5 5 4 6 4 4 4 4 3 3 3 4 4 6
10 10 10 10 10 11 11 11 11 11 10 9 9 8 8 7 8 10 10 9 9 8 8 8 8 9 8 7 6 6 6 5 5 5 4 5 4 3 2 1 2 3 4
Wind_Direction
148 141 137 135 129 125 125 127 127 128 130 131 131 129 128 127 124 121 118 114 112 110 110 110 112 115 116 114 113 113 112 111 112 113 114 115 114 114 115 119 120 109 110
142 140 140 138 132 128 127 127 126 127 129 130 130 130 130 129 125 122 119 117 113 112 111 111 110 112 114 115 117 117 114 112 114 116 117 115 115 115 116 112 103 110 114
140 140 145 139 134 130 128 127 126 127 129 129 130 129 129 128 126 124 121 118 115 112 111 110 111 112 112 114 117 119 117 116 119 123 128 121 117 116 113 108 108 115 114
142 145 145 138 137 133 130 128 128 129 130 130 129 130 128 127 126 126 124 121 118 115 113 112 112 113 113 115 118 119 118 118 126 145 130 121 121 118 118 116 116 115 114
142 142 137 143 139 135 132 130 129 129 129 129 129 129 127 125 124 125 124 122 120 118 117 115 113 114 114 114 116 117 117 120 137 143 111 112 113 120 121 119 117 117 116
144 144 139 145 141 138 135 133 131 130 129 128 127 126 126 124 122 122 122 122 122 120 118 115 115 114 115 115 116 117 119 134 157 113 112 116 116 123 123 123 121 121 121
147 144 141 145 143 140 138 136 134 133 131 128 124 122 122 121 120 119 120 121 121 121 119 117 117 117 118 117 116 117 122 150 120 112 114 112 113 123 125 124 123 122 121
149 144 139 145 144 143 141 138 136 134 132 130 128 125 122 120 118 117 119 120 121 121 121 121 120 119 120 120 118 119 132 174 122 115 113 111 114 122 125 126 126 125 124
150 146 147 151 150 146 142 140 138 136 132 131 129 127 123 121 119 118 119 120 122 122 124 124 122 121 121 121 120 120 122 168 123 119 119 114 121 126 127 130 129 129 130
154 153 153 157 153 155 151 146 142 137 134 133 131 130 130 129 126 127 129 121 124 126 127 127 126 126 126 125 125 125 142 195 125 128 119 118 127 130 131 134 135 136 135
164 161 162 157 158 159 153 148 150 145 143 147 142 140 154 146 137 144 117 125 129 130 130 130 131 133 137 134 135 143 170 150 120 113 107 117 134 137 139 140 141 142 141
171 169 167 163 162 161 155 151 156 158 156 164 147 152 150 133 133 123 122 129 131 133 134 131 136 153 170 141 144 174 155 135 138 129 117 128 141 145 146 146 146 147 146
172 170 170 168 168 164 160 159 159 159 155 158 149 149 143 148 144 142 142 144 144 153 148 146 166 161 144 126 144 143 138 150 139 131 129 142 152 154 153 155 155 155 152
174 172 172 170 171 173 168 163 167 168 166 162 156 170 162 162 155 144 151 149 156 150 145 152 148 141 137 137 137 133 152 158 136 125 131 148 159 163 162 162 164 163 159
176 176 175 174 174 174 172 178 176 176 174 164 162 172 175 172 168 156 153 160 163 150 159 162 151 145 153 157 156 154 153 130 140 146 138 153 164 170 172 171 173 171 171
180 179 178 180 179 178 179 184 181 183 182 180 177 175 188 182 166 170 165 170 169 171 164 167 157 162 170 154 163 157 168 158 155 164 153 157 170 178 181 180 181 181 185
183 181 182 183 183 182 186 189 190 193 189 192 183 181 191 193 174 186 173 181 174 166 165 183 173 175 176 173 169 172 180 173 167 175 171 164 169 180 186 189 189 190 194
183 183 185 186 183 186 189 191 195 199 198 197 195 190 195 198 192 202 191 189 174 183 182 181 196 190 188 187 175 190 181 174 176 181 185 182 181 179 181 188 195 199 203
185 184 185 188 185 187 188 190 200 202 210 209 203 201 200 204 202 210 204 182 190 194 193 200 186 196 194 195 186 184 189 185 184 193 190 188 186 193 181 174 193 203 210
187 186 187 187 184 184 187 193 201 209 214 215 212 206 206 207 206 214 207 196 203 196 200 209 186 202 213 211 221 175 191 187 197 193 204 192 188 195 197 183 191 200 206
187 187 189 188 184 184 189 197 199 207 213 215 215 211 211 213 208 215 220 196 211 206 212 207 201 199 208 203 212 204 204 201 195 197 209 202 192 195 195 194 209 202 194
191 191 189 191 189 192 194 198 203 207 213 213 214 213 215 214 213 211 219 216 209 209 214 218 213 223 209 201 220 215 211 195 203 201 194 197 198 192 196 198 201 206 217
192 193 194 193 193 196 195 195 198 199 213 214 212 211 212 215 219 224 218 226 219 221 213 216 214 220 224 216 222 233 235 218 190 181 195 193 195 200 204 199 202 199 206
193 190 193 191 195 196 195 201 203 207 210 216 216 212 210 215 223 224 223 224 224 228 220 222 217 223 226 229 216 233 259 288 243 195 188 186 190 203 212 215 203 199 203
188 186 188 190 193 195 199 205 210 220 221 220 218 218 221 219 222 225 223 221 222 229 228 232 224 230 226 231 230 223 227 232 242 237 220 197 187 194 197 206 207 201 196
181 182 183 186 192 195 199 206 212 222 224 224 223 222 220 219 219 222 223 219 222 228 226 226 228 227 236 237 242 240 230 228 228 226 226 215 203 194 170 168 198 191 190
Height
1542 1543 1544 1546 1548 1549 1551 1552 1553 1555 1556 1557 1558 1560 1560 1562 1563 1564 1565 1565 1566 1567 1568 1569 1570 1570 1571 1572 1572 1573 1573 1574 1574 1575 1577 1577 1578 1579 1580 1581 1583 1583 1584
1542 1544 1545 1548 1550 1551 1553 1554 1555 1557 1558 1559 1560 1561 1562 1564 1565 1566 1567 1567 1568 1569 1570 1570 1571 1572 1572 1573 1574 1574 1575 1576 1577 1578 1579 1580 1581 1582 1583 1584 1585 1586 1586
1543 1545 1547 1549 1551 1553 1555 1556 1557 1559 1560 1561 1562 1563 1564 1565 1566 1567 1568 1569 1570 1570 1571 1572 1573 1573 1574 1575 1576 1576 1577 1578 1579 1580 1581 1583 1583 1584 1585 1586 1587 1587 1588
1545 1547 1549 1551 1553 1555 1556 1558 1559 1560 1562 1563 1564 1565 1566 1567 1568 1569 1569 1570 1571 1572 1573 1574 1574 1575 1576 1577 1577 1578 1579 1580 1581 1582 1585 1586 1586 1586 1587 1588 1589 1590 1591
1548 1550 1550 1552 1555 1557 1558 1560 1561 1562 1563 1565 1565 1566 1567 1568 1569 1570 1571 1572 1573 1574 1574 1575 1576 1577 1577 1578 1579 1580 1581 1582 1583 1586 1587 1587 1588 1588 1589 1590 1591 1592 1593
1549 1552 1552 1554 1556 1558 1560 1561 1563 1564 1565 1566 1567 1568 1569 1570 1570 1571 1572 1573 1574 1575 1576 1577 1578 1579 1579 1580 1581 1582 1583 1584 1586 1588 1589 1589 1590 1590 1591 1592 1593 1594 1595
1552 1554 1554 1556 1558 1560 1562 1563 1564 1565 1567 1568 1569 1570 1571 1571 1572 1573 1574 1575 1576 1577 1578 1579 1580 1581 1581 1582 1583 1584 1585 1586 1590 1590 1591 1591 1591 1592 1593 1594 1595 1596 1597
1553 1556 1555 1557 1559 1561 1563 1565 1566 1567 1568 1569 1570 1571 1572 1573 1574 1574 1575 1576 1578 1579 1580 1581 1582 1583 1584 1584 1585 1586 1587 1588 1591 1592 1593 1593 1592 1593 1595 1596 1597 1598 1599
1555 1557 1557 1559 1561 1563 1564 1566 1567 1568 1569 1571 1572 1573 1574 1574 1575 1576 1577 1578 1579 1580 1582 1583 1584 1585 1586 1586 1587 1588 1589 1590 1594 1594 1595 1594 1594 1595 1597 1598 1599 1600 1601
1556 1558 1559 1562 1563 1565 1566 1567 1568 1570 1571 1572 1573 1574 1575 1576 1576 1577 1579 1579 1581 1582 1583 1585 1586 1587 1587 1588 1589 1590 1591 1592 1595 1596 1596 1596 1596 1597 1598 1599 1600 1601 1602
1555 1558 1560 1563 1564 1566 1568 1568 1570 1571 1572 1573 1574 1575 1576 1578 1579 1580 1580 1581 1582 1584 1585 1586 1587 1588 1589 1590 1591 1591 1593 1595 1596 1597 1597 1596 1597 1598 1599 1600 1602 1603 1604
1554 1557 1560 1563 1564 1567 1569 1569 1571 1573 1573 1575 1576 1577 1578 1579 1580 1581 1581 1582 1584 1585 1586 1587 1588 1590 1591 1592 1592 1593 1595 1596 1597 1598 1597 1597 1598 1599 1600 1601 1603 1604 1605
1554 1557 1559 1562 1564 1567 1568 1570 1571 1573 1574 1575 1576 1577 1579 1580 1581 1582 1583 1584 1585 1586 1588 1588 1590 1592 1593 1594 1594 1595 1596 1597 1598 1599 1598 1598 1599 1600 1601 1602 1603 1605 1606
1554 1556 1558 1561 1563 1565 1568 1570 1571 1573 1574 1576 1576 1578 1579 1581 1582 1583 1584 1585 1586 1588 1588 1590 1591 1592 1593 1594 1595 1595 1596 1598 1599 1599 1598 1598 1599 1600 1602 1603 1604 1605 1606
1552 1554 1557 1559 1561 1563 1566 1569 1571 1573 1575 1576 1577 1578 1579 1581 1583 1584 1584 1585 1588 1588 1589 1590 1591 1592 1593 1594 1595 1596 1597 1597 1598 1599 1599 1599 1600 1601 1602 1603 1604 1605 1606
1551 1553 1556 1558 1560 1562 1565 1567 1570 1573 1574 1576 1577 1578 1579 1582 1583 1584 1585 1586 1588 1589 1590 1591 1592 1592 1594 1595 1595 1596 1597 1598 1598 1599 1600 1599 1600 1601 1602 1603 1604 1605 1606
1550 1552 1554 1557 1559 1562 1564 1567 1569 1572 1574 1576 1577 1578 1579 1581 1582 1584 1586 1586 1588 1588 1589 1590 1591 1593 1593 1594 1595 1596 1597 1597 1598 1598 1600 1600 1600 1601 1601 1602 1603 1604 1605
1549 1551 1553 1556 1558 1561 1563 1565 1568 1571 1573 1574 1576 1577 1578 1580 1582 1583 1585 1587 1587 1589 1589 1590 1592 1593 1594 1594 1595 1596 1596 1597 1597 1598 1599 1600 1601 1601 1601 1602 1603 1603 1604
1547 1549 1551 1554 1557 1559 1562 1564 1567 1569 1571 1573 1575 1576 1578 1579 1581 1583 1585 1586 1587 1588 1590 1591 1592 1593 1593 1593 1594 1595 1596 1596 1597 1598 1598 1599 1599 1600 1601 1601 1602 1602 1603
1545 1547 1550 1552 1555 1557 1560 1562 1565 1567 1570 1572 1573 1575 1577 1579 1580 1582 1584 1584 1587 1588 1589 1590 1590 1591 1592 1592 1594 1595 1595 1596 1596 1597 1597 1598 1598 1599 1601 1601 1601 1601 1602
1544 1545 1548 1550 1552 1555 1558 1560 1563 1565 1568 1570 1572 1573 1575 1577 1579 1580 1583 1583 1585 1587 1588 1589 1590 1590 1591 1592 1593 1593 1594 1594 1595 1595 1596 1597 1598 1598 1599 1599 1600 1601 1601
1541 1543 1545 1548 1550 1552 1555 1558 1561 1563 1566 1568 1569 1571 1573 1575 1577 1580 1580 1582 1584 1585 1586 1587 1588 1589 1591 1591 1592 1592 1593 1594 1593 1594 1595 1595 1596 1597 1597 1598 1598 1598 1600
1539 1541 1543 1545 1548 1550 1553 1555 1558 1560 1563 1565 1567 1569 1571 1573 1575 1577 1579 1580 1582 1583 1584 1585 1586 1587 1589 1590 1590 1591 1591 1591 1592 1593 1593 1593 1594 1595 1596 1596 1596 1597 1597
1537 1539 1541 1543 1545 1548 1550 1553 1555 1557 1559 1561 1564 1566 1568 1570 1572 1574 1576 1577 1579 1581 1582 1583 1585 1585 1586 1588 1588 1588 1590 1590 1590 1591 1591 1591 1592 1592 1593 1594 1595 1595 1595
1536 1538 1539 1541 1543 1545 1547 1550 1552 1554 1556 1558 1560 1562 1564 1567 1568 1571 1572 1574 1576 1578 1579 1580 1581 1583 1584 1585 1586 1587 1587 1588 1588 1589 1589 1590 1590 1591 1591 1592 1592 1593 1593
1534 1536 1538 1539 1541 1543 1545 1547 1548 1550 1552 1554 1556 1558 1561 1563 1565 1567 1569 1571 1573 1575 1576 1577 1578 1579 1581 1582 1583 1584 1585 1585 1586 1586 1587 1587 1588 1589 1589 1589 1590 1590 1591